Location: Haut Kerinec
(48.0623°N, 4.4081°W)
Time: 03:21:23
(UTC+00:00)

STARLINK-1071 - Pass Details

Date: 01 June 2020
Orbit: 549 x 550 km, 53.0° (Epoch: 11 July)

Event Time Altitude Azimuth Distance (km) Brightness Sun altitude
Rises 20:32:10 0° 296° (WNW) 2,728 9.2 -3.8°
Reaches altitude 10° 20:34:25 10° 293° (WNW) 1,832 7.8 -4.1°
Maximum altitude 20:38:31 60° 214° (SSW) 634 3.9 -4.6°
Drops below altitude 10° 20:42:37 10° 134° (SE) 1,825 5.6 -5.1°
Enters shadow 20:43:20 - 132° (SE) 2,111 5.9 -5.2°
